Tracking 31013 objects as of 11-Jul-2025
HD Live streaming from Space Station
objects crossing your sky now

METEOR 1-13

Track METEOR 1-13 now!
10-day predictions
METEOR 1-13 is classified as:


NORAD ID: 6256
Int'l Code: 1972-085A
Perigee: 849.6 km
Apogee: 887.6 km
Inclination: 81.3 °
Period: 102.2 minutes
Semi major axis: 7239 km
RCS: 4.603 m2 (large)
Launch date: October 26, 1972
Source: Commonwealth of Independent States (former USSR) (CIS)
Launch site: PLESETSK MISSILE AND SPACE COMPLEX (PKMTR)
Your satellite tracking list
Your tracking list is empty




NASA's NSSDC Master Catalog

Two Line Element Set (TLE):
1  6256U 72085A   25192.15373287 -.00000068  00000-0 -46167-4 0  9990
2  6256  81.2714 123.4449 0026214  19.5283 340.6886 14.09388104707472
Source of the keplerian elements: AFSPC